| time (UTC) | temp C | wind direction | speed KPH | gust KPH | rain 1hr cm | rain 24hr cm | rain mn cm | humidity % | barometer mb |
| 20260507160242 | 16 | 345 | 14.5 | 24.1 | 0.00 | 0.00 | 0.00 | 74 | 1012.2 |
| 20260507155742 | 17 | 315 | 20.9 | 30.6 | 0.00 | 0.00 | 0.00 | 71 | 1011.9 |
| 20260507155242 | 17 | 330 | 14.5 | 16.1 | 0.00 | 0.00 | 0.00 | 68 | 1011.9 |
| 20260507154742 | 17 | 308 | 1.6 | 1.6 | 0.00 | 0.00 | 0.00 | 69 | 1011.5 |
| 20260507154242 | 17 | 169 | 11.3 | 11.3 | 0.00 | 0.00 | 0.00 | 68 | 1011.5 |
| 20260507153742 | 17 | 210 | 9.7 | 12.9 | 0.00 | 0.00 | 0.00 | 68 | 1011.5 |
| 20260507153242 | 18 | 155 | 14.5 | 20.9 | 0.00 | 0.00 | 0.00 | 67 | 1011.5 |
| 20260507152742 | 18 | 204 | 14.5 | 14.5 | 0.00 | 0.00 | 0.00 | 66 | 1011.5 |
| 20260507152242 | 18 | 148 | 8.0 | 11.3 | 0.00 | 0.00 | 0.00 | 67 | 1011.5 |
| 20260507151742 | 18 | 127 | 9.7 | 12.9 | 0.00 | 0.00 | 0.00 | 67 | 1011.5 |
| 20260507151242 | 18 | 140 | 9.7 | 11.3 | 0.00 | 0.00 | 0.00 | 68 | 1011.5 |
| 20260507150742 | 18 | 180 | 16.1 | 22.5 | 0.00 | 0.00 | 0.00 | 68 | 1011.5 |
| 20260507150242 | 18 | 167 | 14.5 | 17.7 | 0.00 | 0.00 | 0.00 | 68 | 1011.5 |
| 20260507145742 | 18 | 134 | 8.0 | 9.7 | 0.00 | 0.00 | 0.00 | 69 | 1011.5 |
| 20260507145242 | 18 | 141 | 12.9 | 17.7 | 0.00 | 0.00 | 0.00 | 69 | 1011.5 |
| 20260507144742 | 18 | 164 | 19.3 | 20.9 | 0.00 | 0.00 | 0.00 | 69 | 1011.5 |
| 20260507144242 | 18 | 144 | 16.1 | 19.3 | 0.00 | 0.00 | 0.00 | 67 | 1011.5 |
| 20260507143742 | 19 | 134 | 24.1 | 24.1 | 0.00 | 0.00 | 0.00 | 65 | 1011.5 |
| 20260507143242 | 19 | 181 | 6.4 | 9.7 | 0.00 | 0.00 | 0.00 | 65 | 1011.5 |
| 20260507142742 | 19 | 144 | 6.4 | 11.3 | 0.00 | 0.00 | 0.00 | 64 | 1011.5 |
| 20260507142242 | 19 | 153 | 9.7 | 12.9 | 0.00 | 0.00 | 0.00 | 62 | 1011.5 |
| 20260507141742 | 20 | 141 | 9.7 | 9.7 | 0.00 | 0.00 | 0.00 | 60 | 1011.5 |
| 20260507141242 | 20 | 164 | 9.7 | 16.1 | 0.00 | 0.00 | 0.00 | 58 | 1011.5 |
| 20260507140742 | 20 | 167 | 12.9 | 12.9 | 0.00 | 0.00 | 0.00 | 55 | 1011.5 |
| 20260507140242 | 20 | 309 | 1.6 | 1.6 | 0.00 | 0.00 | 0.00 | 54 | 1011.5 |
| 20260507135742 | 20 | 294 | 1.6 | 1.6 | 0.00 | 0.00 | 0.00 | 55 | 1011.5 |
| 20260507135242 | 20 | 320 | 1.6 | 4.8 | 0.00 | 0.00 | 0.00 | 56 | 1011.5 |
| 20260507134742 | 20 | 318 | 3.2 | 4.8 | 0.00 | 0.00 | 0.00 | 55 | 1011.5 |
| 20260507134242 | 20 | 281 | 9.7 | 12.9 | 0.00 | 0.00 | 0.00 | 55 | 1011.5 |
| 20260507133742 | 21 | 233 | 9.7 | 12.9 | 0.00 | 0.00 | 0.00 | 54 | 1011.5 |
| 20260507133242 | 21 | 214 | 6.4 | 11.3 | 0.00 | 0.00 | 0.00 | 52 | 1011.5 |
| 20260507132742 | 21 | 272 | 8.0 | 9.7 | 0.00 | 0.00 | 0.00 | 53 | 1011.5 |
| 20260507132242 | 21 | 330 | 4.8 | 4.8 | 0.00 | 0.00 | 0.00 | 51 | 1011.5 |
| 20260507131742 | 21 | 322 | 9.7 | 12.9 | 0.00 | 0.00 | 0.00 | 51 | 1011.5 |
| 20260507131242 | 22 | 307 | 3.2 | 4.8 | 0.00 | 0.00 | 0.00 | 50 | 1011.5 |
| 20260507130742 | 22 | 337 | 8.0 | 11.3 | 0.00 | 0.00 | 0.00 | 49 | 1011.5 |
| 20260507130242 | 22 | 329 | 9.7 | 9.7 | 0.00 | 0.00 | 0.00 | 50 | 1011.5 |
| 20260507125742 | 22 | 311 | 0.0 | 1.6 | 0.00 | 0.00 | 0.00 | 51 | 1011.5 |
| 20260507125242 | 21 | 333 | 1.6 | 4.8 | 0.00 | 0.00 | 0.00 | 53 | 1011.5 |
| 20260507124742 | 21 | 324 | 6.4 | 6.4 | 0.00 | 0.00 | 0.00 | 52 | 1011.5 |
| 20260507124242 | 21 | 324 | 6.4 | 9.7 | 0.00 | 0.00 | 0.00 | 53 | 1011.5 |
| 20260507123742 | 20 | 320 | 9.7 | 16.1 | 0.00 | 0.00 | 0.00 | 53 | 1011.5 |
| 20260507123242 | 21 | 305 | 4.8 | 6.4 | 0.00 | 0.00 | 0.00 | 53 | 1011.5 |
| 20260507122742 | 21 | 271 | 6.4 | 8.0 | 0.00 | 0.00 | 0.00 | 51 | 1011.5 |
| 20260507122242 | 21 | 251 | 8.0 | 8.0 | 0.00 | 0.00 | 0.00 | 52 | 1011.9 |
| 20260507121742 | 21 | 318 | 3.2 | 6.4 | 0.00 | 0.00 | 0.00 | 53 | 1011.9 |
| 20260507121242 | 21 | 197 | 4.8 | 9.7 | 0.00 | 0.00 | 0.00 | 50 | 1011.5 |
| 20260507120742 | 21 | 285 | 11.3 | 19.3 | 0.00 | 0.00 | 0.00 | 52 | 1011.5 |
| 20260507120242 | 21 | 303 | 6.4 | 8.0 | 0.00 | 0.00 | 0.00 | 51 | 1011.5 |
| 20260507115742 | 21 | 331 | 3.2 | 14.5 | 0.00 | 0.00 | 0.00 | 50 | 1011.5 |
| 20260507115242 | 21 | 288 | 12.9 | 16.1 | 0.00 | 0.00 | 0.00 | 51 | 1011.5 |
| 20260507114742 | 21 | 265 | 6.4 | 9.7 | 0.00 | 0.00 | 0.00 | 52 | 1011.9 |
| 20260507114242 | 21 | 323 | 9.7 | 14.5 | 0.00 | 0.00 | 0.00 | 51 | 1011.9 |
| 20260507113742 | 21 | 300 | 4.8 | 8.0 | 0.00 | 0.00 | 0.00 | 54 | 1011.9 |
| 20260507113242 | 21 | 288 | 12.9 | 16.1 | 0.00 | 0.00 | 0.00 | 53 | 1011.9 |
| 20260507112742 | 21 | 330 | 11.3 | 14.5 | 0.00 | 0.00 | 0.00 | 53 | 1011.9 |
| 20260507112242 | 21 | 305 | 9.7 | 11.3 | 0.00 | 0.00 | 0.00 | 53 | 1011.9 |
| 20260507111742 | 20 | 202 | 6.4 | 8.0 | 0.00 | 0.00 | 0.00 | 55 | 1011.9 |
| 20260507111242 | 20 | 228 | 8.0 | 11.3 | 0.00 | 0.00 | 0.00 | 56 | 1011.9 |
| 20260507110742 | 20 | 329 | 14.5 | 16.1 | 0.00 | 0.00 | 0.00 | 56 | 1011.9 |
| 20260507110242 | 20 | 287 | 17.7 | 19.3 | 0.00 | 0.00 | 0.00 | 56 | 1011.9 |
| 20260507105742 | 20 | 317 | 3.2 | 8.0 | 0.00 | 0.00 | 0.00 | 57 | 1011.9 |
| 20260507105242 | 20 | 294 | 8.0 | 8.0 | 0.00 | 0.00 | 0.00 | 57 | 1011.9 |
| 20260507104742 | 20 | 281 | 11.3 | 11.3 | 0.00 | 0.00 | 0.00 | 59 | 1011.9 |
| 20260507104242 | 20 | 312 | 4.8 | 11.3 | 0.00 | 0.00 | 0.00 | 59 | 1011.9 |
| 20260507103905 | 20 | 298 | 6.4 | 12.9 | 0.00 | 0.00 | 0.00 | 58 | 1011.5 |
| 20260507103438 | 20 | 298 | 6.4 | 12.9 | 0.00 | 0.00 | 0.00 | 58 | 1011.5 |
| 20260507102938 | 20 | 298 | 9.7 | 14.5 | 0.00 | 0.00 | 0.00 | 59 | 1011.5 |
| 20260507102438 | 20 | 310 | 4.8 | 9.7 | 0.00 | 0.00 | 0.00 | 61 | 1011.5 |
| 20260507101938 | 20 | 242 | 11.3 | 16.1 | 0.00 | 0.00 | 0.00 | 60 | 1011.5 |
| 20260507101438 | 20 | 317 | 12.9 | 12.9 | 0.00 | 0.00 | 0.00 | 57 | 1011.5 |
| 20260507100938 | 20 | 289 | 20.9 | 20.9 | 0.00 | 0.00 | 0.00 | 57 | 1011.5 |
| 20260507100438 | 20 | 316 | 14.5 | 17.7 | 0.00 | 0.00 | 0.00 | 57 | 1011.5 |
| 20260507095938 | 20 | 278 | 3.2 | 9.7 | 0.00 | 0.00 | 0.00 | 62 | 1011.5 |
| 20260507095438 | 20 | 314 | 9.7 | 12.9 | 0.00 | 0.00 | 0.00 | 62 | 1011.5 |
| 20260507094938 | 20 | 278 | 11.3 | 19.3 | 0.00 | 0.00 | 0.00 | 60 | 1011.5 |
| 20260507094438 | 20 | 266 | 9.7 | 16.1 | 0.00 | 0.00 | 0.00 | 61 | 1011.5 |
| 20260507093938 | 20 | 331 | 9.7 | 16.1 | 0.00 | 0.00 | 0.00 | 63 | 1011.5 |
| 20260507090938 | 18 | 314 | 20.9 | 20.9 | 0.00 | 0.00 | 0.00 | 66 | 1011.2 |
| 20260507090438 | 18 | 294 | 9.7 | 20.9 | 0.00 | 0.00 | 0.00 | 66 | 1011.2 |
| 20260507085938 | 19 | 320 | 6.4 | 6.4 | 0.00 | 0.00 | 0.00 | 65 | 1011.2 |
| 20260507085438 | 19 | 315 | 17.7 | 17.7 | 0.00 | 0.00 | 0.00 | 63 | 1011.2 |
| 20260507084938 | 20 | 275 | 6.4 | 9.7 | 0.00 | 0.00 | 0.00 | 63 | 1011.2 |
| 20260507084438 | 20 | 301 | 20.9 | 30.6 | 0.00 | 0.00 | 0.00 | 62 | 1010.8 |
| 20260507083938 | 19 | 271 | 8.0 | 16.1 | 0.00 | 0.00 | 0.00 | 64 | 1010.8 |
| 20260507083438 | 19 | 271 | 6.4 | 9.7 | 0.00 | 0.00 | 0.00 | 65 | 1010.8 |
| 20260507082938 | 18 | 267 | 9.7 | 12.9 | 0.00 | 0.00 | 0.00 | 68 | 1010.8 |
| 20260507082438 | 18 | 279 | 14.5 | 20.9 | 0.00 | 0.00 | 0.00 | 67 | 1010.8 |
| 20260507081938 | 18 | 277 | 6.4 | 17.7 | 0.00 | 0.00 | 0.00 | 67 | 1010.8 |
| 20260507081438 | 18 | 333 | 19.3 | 24.1 | 0.00 | 0.00 | 0.00 | 67 | 1010.8 |
| 20260507080938 | 18 | 315 | 9.7 | 11.3 | 0.00 | 0.00 | 0.00 | 68 | 1010.5 |
| 20260507080438 | 18 | 280 | 14.5 | 20.9 | 0.00 | 0.00 | 0.00 | 68 | 1010.5 |
| 20260507075938 | 18 | 314 | 14.5 | 17.7 | 0.00 | 0.00 | 0.00 | 67 | 1010.5 |
| 20260507075438 | 18 | 281 | 12.9 | 19.3 | 0.00 | 0.00 | 0.00 | 68 | 1010.5 |
| 20260507074938 | 18 | 270 | 16.1 | 35.4 | 0.00 | 0.00 | 0.00 | 67 | 1010.5 |
| 20260507074438 | 18 | 279 | 6.4 | 9.7 | 0.00 | 0.00 | 0.00 | 67 | 1009.8 |
| 20260507073938 | 19 | 199 | 9.7 | 11.3 | 0.00 | 0.00 | 0.00 | 66 | 1009.8 |
| 20260507073438 | 18 | 251 | 11.3 | 16.1 | 0.00 | 0.00 | 0.00 | 67 | 1009.8 |
| 20260507072938 | 18 | 232 | 6.4 | 6.4 | 0.00 | 0.00 | 0.00 | 68 | 1009.8 |
| 20260507072438 | 18 | 270 | 9.7 | 16.1 | 0.00 | 0.00 | 0.00 | 68 | 1009.5 |
| 20260507071938 | 18 | 207 | 16.1 | 16.1 | 0.00 | 0.00 | 0.00 | 67 | 1009.5 |
| 20260507071438 | 18 | 296 | 11.3 | 11.3 | 0.00 | 0.00 | 0.00 | 68 | 1009.5 |
| 20260507070938 | 18 | 222 | 22.5 | 35.4 | 0.00 | 0.00 | 0.00 | 67 | 1009.5 |
| 20260507070438 | 18 | 273 | 9.7 | 16.1 | 0.00 | 0.00 | 0.00 | 68 | 1009.5 |
| 20260507065938 | 17 | 275 | 11.3 | 17.7 | 0.00 | 0.00 | 0.00 | 68 | 1009.5 |
| 20260507065438 | 17 | 235 | 20.9 | 20.9 | 0.00 | 0.00 | 0.00 | 68 | 1009.5 |
| 20260507064938 | 17 | 220 | 11.3 | 14.5 | 0.00 | 0.00 | 0.00 | 70 | 1009.5 |
| 20260507064438 | 17 | 265 | 11.3 | 11.3 | 0.00 | 0.00 | 0.00 | 69 | 1009.5 |
| 20260507063938 | 17 | 311 | 6.4 | 8.0 | 0.00 | 0.00 | 0.00 | 70 | 1009.5 |
| 20260507063438 | 17 | 271 | 1.6 | 9.7 | 0.00 | 0.00 | 0.00 | 71 | 1009.5 |
| 20260507062938 | 17 | 306 | 4.8 | 16.1 | 0.00 | 0.00 | 0.00 | 71 | 1009.5 |
| 20260507062438 | 17 | 178 | 11.3 | 11.3 | 0.00 | 0.00 | 0.00 | 70 | 1009.5 |
| 20260507061938 | 17 | 312 | 6.4 | 9.7 | 0.00 | 0.00 | 0.00 | 70 | 1009.5 |
| 20260507061438 | 17 | 253 | 4.8 | 4.8 | 0.00 | 0.00 | 0.00 | 71 | 1009.5 |
| 20260507060938 | 17 | 236 | 6.4 | 8.0 | 0.00 | 0.00 | 0.00 | 71 | 1009.5 |
| 20260507060438 | 17 | 318 | 8.0 | 12.9 | 0.00 | 0.00 | 0.00 | 70 | 1009.5 |
| 20260507055938 | 17 | 205 | 4.8 | 4.8 | 0.00 | 0.00 | 0.00 | 70 | 1009.1 |
| 20260507055438 | 17 | 262 | 6.4 | 9.7 | 0.00 | 0.00 | 0.00 | 69 | 1009.1 |
| 20260507054938 | 17 | 223 | 3.2 | 8.0 | 0.00 | 0.00 | 0.00 | 70 | 1009.1 |
| 20260507054438 | 17 | 327 | 1.6 | 4.8 | 0.00 | 0.00 | 0.00 | 70 | 1009.1 |
| 20260507053938 | 17 | 290 | 11.3 | 11.3 | 0.00 | 0.00 | 0.00 | 69 | 1009.1 |
| 20260507053438 | 16 | 296 | 6.4 | 6.4 | 0.00 | 0.00 | 0.00 | 70 | 1009.1 |
| 20260507052938 | 16 | 311 | 0.0 | 1.6 | 0.00 | 0.00 | 0.00 | 72 | 1009.1 |
| 20260507052438 | 16 | 270 | 6.4 | 12.9 | 0.00 | 0.00 | 0.00 | 73 | 1008.8 |
| 20260507051938 | 16 | 327 | 0.0 | 0.0 | 0.00 | 0.00 | 0.00 | 79 | 1008.8 |
| 20260507051438 | 16 | 327 | 0.0 | 0.0 | 0.00 | 0.00 | 0.00 | 79 | 1008.8 |
| 20260507050938 | 16 | 326 | 0.0 | 0.0 | 0.00 | 0.00 | 0.00 | 79 | 1008.8 |
| 20260507050438 | 16 | 326 | 0.0 | 0.0 | 0.00 | 0.00 | 0.00 | 77 | 1008.8 |
| 20260507045938 | 16 | 325 | 0.0 | 0.0 | 0.00 | 0.00 | 0.00 | 78 | 1008.8 |
| 20260507045438 | 16 | 325 | 0.0 | 0.0 | 0.00 | 0.00 | 0.00 | 77 | 1008.8 |
| 20260507044938 | 16 | 317 | 0.0 | 1.6 | 0.00 | 0.00 | 0.00 | 73 | 1008.8 |
| 20260507044438 | 16 | 325 | 0.0 | 0.0 | 0.00 | 0.00 | 0.00 | 74 | 1008.8 |
| 20260507043938 | 16 | 321 | 0.0 | 0.0 | 0.00 | 0.00 | 0.00 | 72 | 1008.8 |
| 20260507043438 | 16 | 316 | 0.0 | 1.6 | 0.00 | 0.00 | 0.00 | 71 | 1008.8 |
| 20260507042938 | 16 | 321 | 0.0 | 0.0 | 0.00 | 0.00 | 0.00 | 71 | 1008.8 |
| 20260507042438 | 16 | 319 | 0.0 | 0.0 | 0.00 | 0.00 | 0.00 | 71 | 1008.5 |
| 20260507041938 | 16 | 313 | 1.6 | 6.4 | 0.00 | 0.00 | 0.00 | 71 | 1008.5 |
| 20260507041438 | 16 | 230 | 6.4 | 6.4 | 0.00 | 0.00 | 0.00 | 71 | 1008.5 |
| 20260507040938 | 16 | 339 | 0.0 | 0.0 | 0.00 | 0.00 | 0.00 | 75 | 1008.5 |
| 20260507040443 | 15 | 327 | 1.6 | 1.6 | 0.00 | 0.00 | 0.00 | 76 | 1008.5 |
| 20260507035938 | 15 | 334 | 1.6 | 3.2 | 0.00 | 0.00 | 0.00 | 80 | 1008.5 |
| 20260507035438 | 15 | 329 | 1.6 | 1.6 | 0.00 | 0.00 | 0.00 | 79 | 1008.5 |
| 20260507034938 | 15 | 307 | 1.6 | 1.6 | 0.00 | 0.00 | 0.00 | 82 | 1008.5 |
| 20260507034438 | 15 | 338 | 1.6 | 1.6 | 0.00 | 0.00 | 0.00 | 80 | 1008.5 |
| 20260507033938 | 15 | 334 | 0.0 | 0.0 | 0.00 | 0.00 | 0.00 | 80 | 1008.5 |
| 20260507033438 | 15 | 344 | 0.0 | 1.6 | 0.00 | 0.00 | 0.00 | 81 | 1008.5 |
| 20260507032938 | 15 | 346 | 1.6 | 1.6 | 0.00 | 0.00 | 0.00 | 78 | 1008.5 |
| 20260507032438 | 15 | 329 | 1.6 | 3.2 | 0.00 | 0.00 | 0.00 | 79 | 1008.5 |
| 20260507031938 | 15 | 312 | 1.6 | 1.6 | 0.00 | 0.00 | 0.00 | 77 | 1008.5 |
| 20260507031438 | 16 | 331 | 0.0 | 1.6 | 0.00 | 0.00 | 0.00 | 73 | 1008.5 |
| 20260507030938 | 16 | 311 | 0.0 | 0.0 | 0.00 | 0.00 | 0.00 | 72 | 1008.5 |
| 20260507030438 | 16 | 314 | 1.6 | 1.6 | 0.00 | 0.00 | 0.00 | 71 | 1008.5 |
| 20260507025938 | 16 | 258 | 3.2 | 4.8 | 0.00 | 0.00 | 0.00 | 71 | 1008.5 |
| 20260507025438 | 16 | 156 | 11.3 | 11.3 | 0.00 | 0.00 | 0.00 | 72 | 1008.5 |
| 20260507024938 | 15 | 176 | 3.2 | 8.0 | 0.00 | 0.00 | 0.00 | 79 | 1008.5 |
| 20260507024438 | 15 | 306 | 1.6 | 1.6 | 0.00 | 0.00 | 0.00 | 79 | 1008.1 |
| 20260507023938 | 15 | 317 | 1.6 | 1.6 | 0.00 | 0.00 | 0.00 | 78 | 1008.1 |
| 20260507023438 | 15 | 332 | 1.6 | 1.6 | 0.00 | 0.00 | 0.00 | 81 | 1008.1 |
| 20260507022938 | 15 | 323 | 0.0 | 0.0 | 0.00 | 0.00 | 0.00 | 79 | 1008.1 |
| 20260507022438 | 15 | 331 | 0.0 | 0.0 | 0.00 | 0.00 | 0.00 | 79 | 1008.1 |
| 20260507021938 | 14 | 332 | 0.0 | 1.6 | 0.00 | 0.00 | 0.00 | 80 | 1008.1 |
| 20260507021438 | 14 | 326 | 0.0 | 0.0 | 0.00 | 0.00 | 0.00 | 81 | 1008.1 |
| 20260507020938 | 15 | 328 | 1.6 | 1.6 | 0.00 | 0.00 | 0.00 | 81 | 1008.1 |
| 20260507020438 | 15 | 322 | 0.0 | 0.0 | 0.00 | 0.00 | 0.00 | 77 | 1008.1 |
| 20260507015939 | 15 | 338 | 0.0 | 1.6 | 0.00 | 0.00 | 0.00 | 77 | 1008.1 |
| 20260507015438 | 15 | 318 | 0.0 | 1.6 | 0.00 | 0.00 | 0.00 | 76 | 1008.1 |
| 20260507014938 | 14 | 322 | 0.0 | 3.2 | 0.00 | 0.00 | 0.00 | 77 | 1008.1 |
| 20260507014439 | 13 | 313 | 0.0 | 1.6 | 0.00 | 0.00 | 0.00 | 83 | 1008.1 |
| 20260507013938 | 13 | 326 | 1.6 | 1.6 | 0.00 | 0.00 | 0.00 | 81 | 1008.1 |
| 20260507013438 | 13 | 331 | 0.0 | 0.0 | 0.00 | 0.00 | 0.00 | 80 | 1007.8 |
| 20260507012938 | 14 | 327 | 4.8 | 4.8 | 0.00 | 0.00 | 0.00 | 80 | 1007.8 |
| 20260507012438 | 13 | 334 | 0.0 | 1.6 | 0.00 | 0.00 | 0.00 | 84 | 1007.8 |
| 20260507011938 | 12 | 326 | 1.6 | 1.6 | 0.00 | 0.00 | 0.00 | 87 | 1007.8 |
| 20260507011438 | 13 | 327 | 1.6 | 1.6 | 0.00 | 0.00 | 0.00 | 88 | 1007.8 |
| 20260507010938 | 13 | 326 | 0.0 | 0.0 | 0.00 | 0.00 | 0.00 | 87 | 1007.8 |
| 20260507010438 | 13 | 326 | 0.0 | 0.0 | 0.00 | 0.00 | 0.00 | 84 | 1007.8 |
| 20260507005938 | 13 | 331 | 0.0 | 1.6 | 0.00 | 0.00 | 0.00 | 85 | 1007.8 |
| 20260507005438 | 13 | 338 | 0.0 | 0.0 | 0.00 | 0.00 | 0.00 | 83 | 1007.8 |
| 20260507004939 | 13 | 321 | 0.0 | 0.0 | 0.00 | 0.00 | 0.00 | 81 | 1007.8 |
| 20260507004438 | 13 | 332 | 0.0 | 0.0 | 0.00 | 0.00 | 0.00 | 85 | 1007.8 |
| 20260507003938 | 14 | 335 | 0.0 | 0.0 | 0.00 | 0.00 | 0.00 | 81 | 1007.8 |
| 20260507003438 | 14 | 352 | 0.0 | 0.0 | 0.00 | 0.00 | 0.00 | 80 | 1007.8 |
| 20260507002938 | 14 | 300 | 1.6 | 1.6 | 0.00 | 0.00 | 0.00 | 83 | 1007.8 |
| 20260507002438 | 14 | 342 | 0.0 | 0.0 | 0.00 | 0.00 | 0.00 | 81 | 1007.8 |
| 20260507001938 | 15 | 345 | 1.6 | 1.6 | 0.00 | 0.00 | 0.00 | 77 | 1007.8 |
| 20260507001438 | 15 | 307 | 1.6 | 3.2 | 0.00 | 0.00 | 0.00 | 74 | 1007.8 |
| 20260507000938 | 15 | 335 | 0.0 | 0.0 | 0.00 | 0.00 | 0.00 | 75 | 1007.8 |
| 20260507000438 | 16 | 337 | 1.6 | 1.6 | 0.00 | 0.00 | 0.00 | 73 | 1007.8 |
| 20260506235938 | 16 | 357 | 1.6 | 3.2 | 0.00 | 0.00 | 0.00 | 67 | 1007.8 |
| 20260506235438 | 17 | 134 | 11.3 | 12.9 | 0.00 | 0.00 | 0.00 | 63 | 1007.8 |
| 20260506234938 | 18 | 188 | 6.4 | 9.7 | 0.00 | 0.00 | 0.00 | 60 | 1007.8 |
| 20260506234438 | 18 | 200 | 9.7 | 14.5 | 0.00 | 0.00 | 0.00 | 61 | 1007.8 |
| 20260506233938 | 17 | 267 | 4.8 | 8.0 | 0.00 | 0.00 | 0.00 | 62 | 1007.8 |
| 20260506233438 | 17 | 245 | 8.0 | 8.0 | 0.00 | 0.00 | 0.00 | 63 | 1007.8 |
| 20260506232938 | 17 | 171 | 12.9 | 12.9 | 0.00 | 0.00 | 0.00 | 64 | 1007.8 |
| 20260506232438 | 16 | 310 | 1.6 | 9.7 | 0.00 | 0.00 | 0.00 | 69 | 1007.8 |
| 20260506231938 | 14 | 339 | 0.0 | 0.0 | 0.00 | 0.00 | 0.00 | 77 | 1007.8 |
| 20260506231438 | 14 | 313 | 1.6 | 1.6 | 0.00 | 0.00 | 0.00 | 79 | 1007.8 |
| 20260506230938 | 14 | 344 | 0.0 | 1.6 | 0.00 | 0.00 | 0.00 | 79 | 1007.8 |
| 20260506230438 | 14 | 88 | 4.8 | 12.9 | 0.00 | 0.00 | 0.00 | 79 | 1007.8 |
| 20260506225938 | 13 | 340 | 1.6 | 3.2 | 0.00 | 0.00 | 0.00 | 82 | 1007.8 |
| 20260506225438 | 13 | 308 | 1.6 | 1.6 | 0.00 | 0.00 | 0.00 | 84 | 1007.8 |
| 20260506224938 | 13 | 313 | 1.6 | 1.6 | 0.00 | 0.00 | 0.00 | 83 | 1007.8 |
| 20260506224438 | 13 | 326 | 1.6 | 1.6 | 0.00 | 0.00 | 0.00 | 82 | 1007.8 |
| 20260506223938 | 13 | 311 | 1.6 | 1.6 | 0.00 | 0.00 | 0.00 | 84 | 1007.8 |
| 20260506223438 | 13 | 323 | 0.0 | 0.0 | 0.00 | 0.00 | 0.00 | 82 | 1007.8 |
| 20260506222938 | 13 | 307 | 1.6 | 1.6 | 0.00 | 0.00 | 0.00 | 84 | 1007.8 |
| 20260506222438 | 13 | 339 | 1.6 | 1.6 | 0.00 | 0.00 | 0.00 | 85 | 1007.8 |
| 20260506221938 | 13 | 348 | 1.6 | 1.6 | 0.00 | 0.00 | 0.00 | 86 | 1007.8 |
| 20260506221438 | 13 | 341 | 0.0 | 0.0 | 0.00 | 0.00 | 0.00 | 84 | 1007.8 |
| 20260506220938 | 13 | 347 | 0.0 | 0.0 | 0.00 | 0.00 | 0.00 | 86 | 1007.8 |
| 20260506220438 | 13 | 344 | 1.6 | 1.6 | 0.00 | 0.00 | 0.00 | 87 | 1007.8 |
| 20260506215938 | 13 | 342 | 1.6 | 1.6 | 0.00 | 0.00 | 0.00 | 86 | 1007.8 |
| 20260506215438 | 13 | 343 | 0.0 | 0.0 | 0.00 | 0.00 | 0.00 | 85 | 1007.8 |
| 20260506214938 | 13 | 344 | 0.0 | 3.2 | 0.00 | 0.00 | 0.00 | 84 | 1007.8 |
| 20260506214438 | 13 | 337 | 0.0 | 0.0 | 0.00 | 0.00 | 0.00 | 83 | 1007.8 |
| 20260506213938 | 13 | 337 | 0.0 | 0.0 | 0.00 | 0.00 | 0.00 | 79 | 1007.8 |
| 20260506213438 | 13 | 325 | 0.0 | 0.0 | 0.00 | 0.00 | 0.00 | 81 | 1008.1 |
| 20260506212938 | 14 | 325 | 0.0 | 0.0 | 0.00 | 0.00 | 0.00 | 78 | 1008.1 |
| 20260506212438 | 14 | 326 | 0.0 | 1.6 | 0.00 | 0.00 | 0.00 | 77 | 1007.8 |
| 20260506211938 | 14 | 328 | 1.6 | 1.6 | 0.00 | 0.00 | 0.00 | 79 | 1007.8 |
| 20260506211438 | 13 | 329 | 0.0 | 0.0 | 0.00 | 0.00 | 0.00 | 82 | 1007.8 |
| 20260506210938 | 13 | 329 | 0.0 | 1.6 | 0.00 | 0.00 | 0.00 | 83 | 1007.8 |
| 20260506210438 | 13 | 336 | 0.0 | 0.0 | 0.00 | 0.00 | 0.00 | 85 | 1007.8 |
| 20260506205938 | 13 | 336 | 0.0 | 0.0 | 0.00 | 0.00 | 0.00 | 83 | 1007.8 |
| 20260506205438 | 13 | 347 | 1.6 | 1.6 | 0.00 | 0.00 | 0.00 | 80 | 1007.8 |
| 20260506204938 | 13 | 329 | 0.0 | 0.0 | 0.00 | 0.00 | 0.00 | 81 | 1007.8 |
| 20260506204438 | 13 | 337 | 0.0 | 0.0 | 0.00 | 0.00 | 0.00 | 81 | 1007.8 |
| 20260506203938 | 13 | 326 | 0.0 | 0.0 | 0.00 | 0.00 | 0.00 | 82 | 1007.8 |
| 20260506203438 | 13 | 326 | 0.0 | 0.0 | 0.00 | 0.00 | 0.00 | 80 | 1007.8 |
| 20260506202938 | 13 | 326 | 0.0 | 0.0 | 0.00 | 0.00 | 0.00 | 79 | 1007.8 |
| 20260506202438 | 13 | 325 | 0.0 | 0.0 | 0.00 | 0.00 | 0.00 | 77 | 1007.8 |
| 20260506201938 | 14 | 322 | 1.6 | 1.6 | 0.00 | 0.00 | 0.00 | 80 | 1007.8 |
| 20260506201438 | 13 | 341 | 0.0 | 0.0 | 0.00 | 0.00 | 0.00 | 79 | 1007.8 |
| 20260506200938 | 13 | 343 | 3.2 | 3.2 | 0.00 | 0.00 | 0.00 | 81 | 1007.8 |
| 20260506200438 | 13 | 339 | 0.0 | 0.0 | 0.00 | 0.00 | 0.00 | 84 | 1007.8 |
| 20260506195938 | 13 | 340 | 0.0 | 0.0 | 0.00 | 0.00 | 0.00 | 85 | 1007.8 |
| 20260506195438 | 13 | 339 | 0.0 | 0.0 | 0.00 | 0.00 | 0.00 | 83 | 1007.8 |
| 20260506194938 | 13 | 340 | 0.0 | 0.0 | 0.00 | 0.00 | 0.00 | 81 | 1007.8 |
| 20260506194438 | 13 | 340 | 0.0 | 0.0 | 0.00 | 0.00 | 0.00 | 82 | 1007.8 |
| 20260506193938 | 13 | 336 | 0.0 | 0.0 | 0.00 | 0.00 | 0.00 | 80 | 1007.8 |
| 20260506193438 | 13 | 339 | 0.0 | 0.0 | 0.00 | 0.00 | 0.00 | 78 | 1007.5 |
| 20260506192938 | 14 | 340 | 0.0 | 1.6 | 0.00 | 0.00 | 0.00 | 81 | 1007.5 |
| 20260506192438 | 14 | 336 | 0.0 | 0.0 | 0.00 | 0.00 | 0.00 | 75 | 1007.5 |
| 20260506191938 | 14 | 348 | 1.6 | 1.6 | 0.00 | 0.00 | 0.00 | 77 | 1007.5 |
| 20260506190438 | 15 | 334 | 0.0 | 0.0 | 0.00 | 0.00 | 0.00 | 74 | 1007.5 |
| 20260506185938 | 15 | 337 | 0.0 | 0.0 | 0.00 | 0.00 | 0.00 | 78 | 1007.5 |
| 20260506185438 | 15 | 339 | 1.6 | 1.6 | 0.00 | 0.00 | 0.00 | 74 | 1007.5 |
| 20260506184938 | 15 | 337 | 3.2 | 3.2 | 0.00 | 0.00 | 0.00 | 73 | 1007.5 |
| 20260506184438 | 16 | 336 | 0.0 | 0.0 | 0.00 | 0.00 | 0.00 | 75 | 1006.8 |
| 20260506183938 | 16 | 336 | 0.0 | 0.0 | 0.00 | 0.00 | 0.00 | 71 | 1006.8 |
| 20260506183438 | 16 | 336 | 0.0 | 0.0 | 0.00 | 0.00 | 0.00 | 73 | 1006.8 |
| 20260506182938 | 17 | 335 | 1.6 | 1.6 | 0.00 | 0.00 | 0.00 | 70 | 1006.8 |
| 20260506182438 | 17 | 329 | 0.0 | 0.0 | 0.00 | 0.00 | 0.00 | 70 | 1006.8 |
| 20260506181938 | 17 | 327 | 1.6 | 1.6 | 0.00 | 0.00 | 0.00 | 69 | 1006.4 |
| 20260506181438 | 18 | 331 | 0.0 | 0.0 | 0.00 | 0.00 | 0.00 | 63 | 1006.4 |
| 20260506180938 | 18 | 326 | 0.0 | 0.0 | 0.00 | 0.00 | 0.00 | 64 | 1006.4 |
| 20260506180438 | 19 | 325 | 0.0 | 0.0 | 0.00 | 0.00 | 0.00 | 58 | 1006.4 |
| 20260506175938 | 19 | 327 | 1.6 | 1.6 | 0.00 | 0.00 | 0.00 | 62 | 1006.4 |
| 20260506175438 | 20 | 336 | 0.0 | 1.6 | 0.00 | 0.00 | 0.00 | 55 | 1006.4 |
| 20260506174938 | 20 | 327 | 0.0 | 0.0 | 0.00 | 0.00 | 0.00 | 56 | 1006.4 |
| 20260506174438 | 20 | 326 | 0.0 | 0.0 | 0.00 | 0.00 | 0.00 | 54 | 1006.8 |
| 20260506173938 | 20 | 294 | 3.2 | 3.2 | 0.00 | 0.00 | 0.00 | 49 | 1006.8 |
| 20260506173438 | 20 | 336 | 0.0 | 1.6 | 0.00 | 0.00 | 0.00 | 49 | 1006.8 |
| 20260506172938 | 20 | 264 | 3.2 | 4.8 | 0.00 | 0.00 | 0.00 | 47 | 1006.8 |
| 20260506172438 | 20 | 290 | 3.2 | 3.2 | 0.00 | 0.00 | 0.00 | 47 | 1006.8 |
| 20260506171938 | 20 | 320 | 1.6 | 1.6 | 0.00 | 0.00 | 0.00 | 49 | 1006.8 |
| 20260506171438 | 20 | 341 | 0.0 | 0.0 | 0.00 | 0.00 | 0.00 | 49 | 1006.8 |
| 20260506170938 | 20 | 323 | 0.0 | 0.0 | 0.00 | 0.00 | 0.00 | 47 | 1006.8 |
| 20260506170438 | 21 | 317 | 1.6 | 1.6 | 0.00 | 0.00 | 0.00 | 47 | 1006.8 |
| 20260506165938 | 21 | 29 | 8.0 | 9.7 | 0.00 | 0.00 | 0.00 | 46 | 1006.4 |
| 20260506165438 | 21 | 218 | 6.4 | 8.0 | 0.00 | 0.00 | 0.00 | 47 | 1006.4 |
| 20260506164938 | 21 | 29 | 3.2 | 4.8 | 0.00 | 0.00 | 0.00 | 47 | 1006.4 |
| 20260506164438 | 21 | 320 | 4.8 | 8.0 | 0.00 | 0.00 | 0.00 | 43 | 1006.8 |
| 20260506163938 | 21 | 298 | 4.8 | 6.4 | 0.00 | 0.00 | 0.00 | 44 | 1006.8 |
| 20260506163438 | 21 | 287 | 8.0 | 9.7 | 0.00 | 0.00 | 0.00 | 42 | 1006.8 |
| 20260506162938 | 22 | 284 | 6.4 | 6.4 | 0.00 | 0.00 | 0.00 | 41 | 1006.8 |
| 20260506162438 | 22 | 299 | 4.8 | 4.8 | 0.00 | 0.00 | 0.00 | 41 | 1006.8 |
| 20260506161938 | 22 | 283 | 4.8 | 6.4 | 0.00 | 0.00 | 0.00 | 42 | 1006.8 |
| 20260506161438 | 22 | 292 | 12.9 | 17.7 | 0.00 | 0.00 | 0.00 | 39 | 1006.8 |
| 20260506160938 | 23 | 227 | 12.9 | 17.7 | 0.00 | 0.00 | 0.00 | 38 | 1006.4 |
| 20260506160438 | 24 | 237 | 4.8 | 4.8 | 0.00 | 0.00 | 0.00 | 37 | 1006.4 |